2024-166B (61180 NORAD) Tracking and Keplerian Element Data

This shows tracking and keplerian element data for the satellite.

Feedback or suggestion? Click here.




ElementValue
Catalog61180
Name2024-166B
Epoch Orbit402
Epoch Day286.87889104
Epoch Year2024
RAAN181.8241
Inclination96.7643
Eccentricity0.0015605
Argument of Perigee142.0553
Mean Anonmoly218.182
Mean Motion15.81430757
Decay Rate0.00076121
L11 61180U 24166B 24286.87889104 .00076121 00000+0 38051-3 0 9998
L22 61180 96.7643 181.8241 0015605 142.0553 218.1820 15.81430757 4024



Live tracking and technical data element details for 2024-166B (NORAD 61180). 2024-166B can be tracked NOW for your location showing map with azimuth and elevation plus other details from your city location.







IsCatalogInMostPopularTable: catalog: 61180, numindb: 24
Update: records affected: 1



GetName: 61180 2024-166B

Hit Count: updated at: Fri, 06 Dec 2024 12:08:52 GMT